Change the Weather History Date:

Monday, June 24, 2013

  Actual Average Record
Temperature  
Mean Temperature 60 °F -  
Max Temperature 66 °F 62 °F 72 °F (2014)
Min Temperature 54 °F 48 °F 39 °F (2012)
Degree Days  
Heating Degree Days 5    
Growing Degree Days 10 (Base 50)    
Moisture  
Dew Point 55 °F    
Average Humidity 89    
Maximum Humidity 100    
Minimum Humidity 68    
Precipitation  
Precipitation 0.11 in - - ()
Sea Level Pressure  
Sea Level Pressure 29.64 in    
Wind  
Wind Speed 4 mph (SSE)    
Max Wind Speed 12 mph    
Max Gust Speed -    
Visibility 8 miles    
Events Rain    
Averages and records for this station are not official NWS values.
T = Trace of Precipitation, MM = Missing Value Source: NWS Daily Summary

Daily Weather History Graph

Daily Weather History Graph

Search for Another Location

Airport or City:

Trip Planner

Search our weather history database for the weather conditions in past years. The results will help you decide how hot, cold, wet, or windy it might be!

Date:

Astronomy

Jun. 24, 2013 Rise Set
Actual Time 5:10 AM PDT 9:15 PM PDT
Civil Twilight 4:28 AM PDT 9:57 PM PDT
Nautical Twilight 3:29 AM PDT 10:56 PM PDT
Astronomical Twilight 1:39 AM PDT 12:45 AM PDT
Moon 10:09 PM PDT (6/24) 6:53 AM PDT (6/24)
Length of Visible Light 17h 29m
Length of Day
16h 05m
Full, 97% of the Moon is Illuminated
Jun 24
Full
Jun 29
Last Quarter
Jul 8
New
Jul 15
First Quarter
Jul 22
Full

Hourly Weather History & Observations

Time (PDT) Temp. Dew Point Humidity Pressure Visibility Wind Dir Wind Speed Gust Speed Precip Events Conditions
12:56 AM 54.0 °F 54.0 °F 100% 29.61 in 3.0 mi Calm Calm - 0.01 in Rain Light Rain
1:19 AM 55.4 °F 53.6 °F 94% 29.60 in 6.0 mi Calm Calm - 0.00 in Rain Light Rain
1:56 AM 55.0 °F 54.0 °F 96% 29.60 in 5.0 mi Calm Calm - 0.00 in Rain Light Rain
2:56 AM 57.0 °F 55.9 °F 96% 29.59 in 4.0 mi SE 3.5 mph - 0.01 in Rain Light Rain
3:56 AM 59.0 °F 57.9 °F 96% 29.59 in 4.0 mi SSE 9.2 mph - N/A Rain Light Rain
4:56 AM 60.1 °F 57.9 °F 93% 29.58 in 10.0 mi SE 8.1 mph - N/A Rain Light Rain
5:06 AM 60.8 °F 57.2 °F 88% 29.57 in 10.0 mi SE 9.2 mph - N/A   Overcast
5:36 AM 60.8 °F 57.2 °F 88% 29.57 in 10.0 mi SE 9.2 mph - N/A   Overcast
5:56 AM 60.1 °F 57.9 °F 93% 29.58 in 10.0 mi SE 9.2 mph - 0.00 in   Overcast
6:25 AM 60.8 °F 57.2 °F 88% 29.57 in 10.0 mi SE 10.4 mph - N/A   Overcast
6:56 AM 61.0 °F 57.9 °F 90% 29.59 in 10.0 mi SSE 11.5 mph - N/A   Overcast
7:56 AM 61.0 °F 57.9 °F 90% 29.60 in 10.0 mi SSE 10.4 mph - N/A   Overcast
8:18 AM 57.2 °F 55.4 °F 94% 29.60 in 8.0 mi WSW 9.2 mph - 0.00 in Rain Light Rain
8:23 AM 55.4 °F 53.6 °F 94% 29.60 in 0.5 mi WSW 11.5 mph - 0.01 in Rain Light Rain
8:37 AM 55.4 °F 53.6 °F 94% 29.61 in 0.5 mi West 3.5 mph - 0.01 in Rain Light Rain
8:54 AM 55.4 °F 55.4 °F 100% 29.62 in 0.5 mi Calm Calm - 0.01 in Rain Light Rain
8:56 AM 55.9 °F 55.0 °F 97% 29.63 in 0.5 mi Calm Calm - 0.02 in Rain Light Rain
9:09 AM 57.2 °F 55.4 °F 94% 29.63 in 1.2 mi SE 3.5 mph - 0.00 in Rain Light Rain
9:56 AM 57.0 °F 55.0 °F 93% 29.66 in 3.0 mi SE 4.6 mph - 0.06 in Rain Light Rain
10:56 AM 59.0 °F 55.0 °F 87% 29.67 in 8.0 mi SE 6.9 mph - 0.00 in Rain Light Rain
11:49 AM 57.2 °F 55.4 °F 94% 29.67 in 9.0 mi SE 5.8 mph - 0.01 in   Overcast
11:56 AM 59.0 °F 55.9 °F 90% 29.69 in 10.0 mi ESE 5.8 mph - 0.01 in   Overcast
12:56 PM 60.1 °F 55.9 °F 86% 29.69 in 8.0 mi ESE 4.6 mph - 0.00 in   Overcast
1:56 PM 62.1 °F 55.9 °F 80% 29.69 in 10.0 mi Variable 3.5 mph - N/A   Overcast
2:56 PM 64.0 °F 55.0 °F 73% 29.69 in 10.0 mi ESE 5.8 mph - N/A   Overcast
3:56 PM 66.0 °F 55.0 °F 68% 29.69 in 10.0 mi SSE 6.9 mph - N/A   Overcast
4:56 PM 64.9 °F 54.0 °F 68% 29.69 in 10.0 mi Variable 4.6 mph - N/A   Overcast
5:56 PM 57.0 °F 53.1 °F 87% 29.70 in 10.0 mi WSW 6.9 mph - N/A   Overcast
6:26 PM 57.2 °F 51.8 °F 82% 29.69 in 10.0 mi West 4.6 mph - 0.00 in Rain Light Rain
6:56 PM 55.0 °F 51.1 °F 86% 29.70 in 10.0 mi Calm Calm - 0.00 in Rain Light Rain
7:10 PM 55.4 °F 51.8 °F 88% 29.70 in 10.0 mi West 3.5 mph - 0.00 in   Overcast
7:56 PM 55.9 °F 51.1 °F 84% 29.71 in 10.0 mi Calm Calm - 0.00 in   Mostly Cloudy
8:56 PM 55.9 °F 52.0 °F 87% 29.70 in 10.0 mi Calm Calm - N/A   Mostly Cloudy
9:56 PM 55.0 °F 51.1 °F 86% 29.71 in 10.0 mi Calm Calm - 0.00 in Rain Light Rain
10:56 PM 55.0 °F 52.0 °F 89% 29.70 in 10.0 mi ESE 3.5 mph - 0.00 in   Mostly Cloudy
11:56 PM 55.0 °F 53.1 °F 93% 29.70 in 10.0 mi SE 4.6 mph - N/A   Mostly Cloudy